Location: Powder Track
(41.8531°N, 72.3584°W)
Time: 23:44:32
(UTC+00:00)

Vanguard 1 Rocket - Pass Details

Date: 15 August 2021
Orbit: 650 x 4226 km, 34.3° (Epoch: 19 September)

Event Time Altitude Azimuth Distance (km) Brightness Sun altitude
Rises 16:25:50 0° 281° (W) 8,255 12.1 61.3°
Reaches altitude 10° 16:32:21 10° 277° (W) 6,904 11.9 61.6°
Maximum altitude 16:51:16 45° 214° (SW) 3,226 11.6 62.0°
Drops below altitude 10° 17:01:47 10° 146° (SE) 3,963 11.2 61.9°
Sets 17:04:27 0° 139° (SE) 4,598 11.3 61.9°
